Theta_e
288 288 288 288 288 287 286 285 286 286 285 285 284 285 284 284 283 283 285 285 285 285 285 285 286 286 286 286 287 286 287 288
287 287 288 287 286 285 285 285 284 285 285 284 284 284 284 283 282 283 285 284 284 284 284 284 284 285 285 286 286 286 286 287
286 287 286 286 285 284 284 284 284 284 284 284 284 283 282 281 281 284 284 284 283 284 284 284 285 285 285 285 286 285 285 286
285 285 285 285 284 283 283 283 284 283 283 282 281 279 275 275 277 283 283 283 284 284 284 284 284 284 285 285 285 285 286 286
284 284 284 284 282 282 283 283 282 282 281 279 277 277 274 274 279 278 281 283 284 284 284 284 284 285 285 285 285 285 286 286
283 283 282 281 280 279 278 280 280 277 274 273 272 272 271 270 280 281 277 284 284 283 283 284 285 285 286 286 285 287 285 285
283 282 283 283 280 277 276 276 276 272 271 269 268 268 268 268 276 284 283 283 283 282 282 282 284 288 288 286 284 285 285 285
282 283 284 283 281 278 276 272 272 269 270 268 266 266 266 266 269 277 279 281 283 282 281 281 282 288 287 286 282 283 283 284
281 281 281 278 278 274 273 272 271 268 269 267 265 266 266 265 267 270 272 274 276 276 276 280 282 287 287 285 280 279 282 284
282 279 276 278 277 275 271 269 268 269 271 268 266 266 265 267 266 268 269 272 271 273 271 275 279 285 286 282 279 280 280 282
274 272 277 274 275 275 273 270 271 273 273 271 266 266 267 267 268 268 268 273 276 275 270 272 273 281 285 282 279 277 279 280
275 279 276 274 275 275 272 273 276 274 272 270 268 270 270 270 271 272 271 272 269 272 272 270 272 273 283 284 278 276 276 277
277 275 269 274 277 275 275 277 274 274 274 273 271 273 274 274 275 275 275 274 272 271 271 273 273 279 280 281 281 280 276 277
278 277 274 274 278 279 279 275 275 275 275 273 273 275 276 275 276 276 276 274 274 274 271 272 275 275 280 280 280 279 275 277
278 278 278 277 278 280 277 277 275 275 275 274 274 274 275 277 277 274 272 272 273 273 271 270 272 274 274 274 272 275 273 272
279 279 279 278 278 278 278 276 276 277 276 276 275 274 275 276 275 276 275 275 271 270 271 269 269 274 279 278 274 269 274 263
278 277 279 275 277 276 276 278 278 277 276 277 276 274 275 275 272 282 282 283 283 283 277 274 280 282 282 282 281 280 277 263
279 278 277 275 275 276 276 277 278 279 279 277 276 275 275 274 275 274 275 283 283 283 283 282 281 282 282 282 282 279 273 260
275 274 273 273 274 275 276 277 278 279 280 279 277 276 276 276 276 275 273 273 271 278 280 282 282 282 281 281 276 265 266 260
269 270 269 269 273 271 275 277 277 278 279 279 278 277 277 276 276 275 273 272 268 265 274 273 282 282 282 280 264 263 262 260
Wind_Speed
9 10 7 7 7 7 7 6 4 3 2 2 4 5 5 5 5 6 8 9 9 10 10 11 11 11 11 10 11 12 11 10
8 8 9 7 7 7 7 6 5 4 2 3 4 4 4 4 5 7 9 9 9 10 11 11 11 11 11 12 13 14 14 14
9 9 9 8 7 8 7 6 6 3 1 2 3 4 5 5 6 8 8 8 9 10 10 10 10 11 12 13 12 13 14 15
8 9 9 8 7 7 7 6 5 3 1 2 4 4 4 5 6 8 7 8 9 9 10 11 11 11 11 12 13 14 14 14
7 8 8 7 8 7 7 6 5 3 2 2 2 3 3 4 6 6 6 8 9 8 10 10 11 11 12 12 13 15 13 11
9 8 8 7 7 6 4 5 5 4 2 5 4 4 3 3 5 6 5 7 7 8 10 10 9 8 10 9 12 9 6 7
9 9 9 10 9 7 7 6 4 4 5 4 2 4 3 3 5 5 6 6 5 7 10 10 8 19 18 14 9 7 5 7
11 11 10 10 10 11 9 6 6 4 5 4 2 3 3 3 4 5 4 4 6 7 9 10 11 23 20 16 7 7 7 7
8 7 8 6 8 7 7 7 6 5 6 4 3 4 4 3 3 5 3 3 4 4 6 8 9 22 20 16 7 6 7 7
6 5 6 9 8 8 7 6 6 6 7 5 5 3 4 1 3 4 2 3 3 3 5 5 8 20 20 12 7 7 8 9
5 4 7 6 9 9 8 7 8 8 8 6 6 5 5 4 4 4 2 2 3 4 3 5 6 14 18 13 6 7 7 9
5 7 6 8 9 9 7 11 9 6 6 6 6 6 6 5 2 2 2 1 2 3 4 4 4 7 15 16 6 5 6 6
5 5 4 7 9 8 11 9 7 7 7 7 7 5 4 5 3 2 2 1 3 2 3 3 4 10 13 14 13 11 5 6
6 5 5 7 9 11 11 8 7 7 9 7 7 6 5 4 4 2 1 2 1 2 2 3 4 4 11 13 13 12 5 4
6 6 7 9 11 14 5 8 8 9 8 7 7 6 5 3 2 2 3 2 1 0 1 2 2 3 3 3 3 6 6 7
7 6 9 7 11 10 8 8 8 9 7 8 8 8 6 5 5 4 4 4 4 3 3 1 2 2 5 5 2 2 4 3
4 4 8 6 8 7 8 11 11 9 8 8 7 7 6 5 2 8 9 11 9 7 6 3 6 2 3 6 8 7 4 5
6 6 6 6 7 7 8 10 12 12 10 8 8 8 8 6 7 6 4 11 11 10 7 6 5 4 3 5 3 6 4 3
3 5 6 5 7 7 7 10 12 12 12 9 9 8 8 8 8 6 6 6 3 10 9 9 5 5 3 5 5 4 5 2
3 5 4 4 8 4 6 9 10 9 9 9 8 8 9 8 7 6 6 5 3 1 5 5 10 8 6 0 3 2 1 0
Wind_Direction
171 162 163 166 161 156 160 177 201 228 257 296 301 316 311 316 317 319 312 311 306 301 296 296 290 287 281 276 270 267 264 265
168 164 162 158 159 161 161 175 203 214 233 296 316 318 324 325 320 318 314 310 302 297 293 288 287 283 278 272 270 268 267 263
167 165 165 171 167 170 173 181 198 190 223 298 316 342 337 328 317 307 305 302 294 292 290 289 287 286 283 282 276 269 265 263
162 179 177 181 174 174 177 187 185 165 211 314 343 344 319 318 311 297 304 300 298 298 301 302 297 289 281 276 273 268 263 263
183 192 188 183 175 176 179 179 176 177 202 283 305 286 302 302 301 289 302 306 310 316 312 307 300 294 286 280 275 267 259 259
194 202 196 180 176 168 169 169 177 170 200 247 277 290 316 312 303 292 298 331 318 335 323 315 313 306 323 322 306 295 258 263
207 192 199 190 183 175 180 189 163 174 227 244 286 305 319 330 309 302 350 336 327 344 327 328 321 344 348 351 339 311 276 271
200 201 196 191 177 188 187 162 177 176 233 228 225 288 293 328 331 310 302 322 332 350 333 332 338 360 359 355 341 347 346 325
198 200 194 166 174 149 161 174 181 185 236 208 193 263 288 7 340 308 293 319 314 309 324 340 344 2 4 1 336 344 346 351
190 182 162 174 163 156 167 169 174 201 231 210 185 224 274 57 322 281 300 309 308 291 316 339 347 3 11 9 346 360 359 3
164 152 157 172 154 161 183 182 203 202 220 198 177 207 243 207 208 224 253 278 309 330 332 328 334 354 16 25 4 3 8 7
168 179 179 153 159 184 174 211 208 181 187 194 187 212 223 243 193 217 280 353 1 344 319 326 336 332 21 26 20 12 355 7
169 196 183 164 171 187 208 208 171 183 186 198 191 210 213 214 227 199 179 351 340 350 327 330 332 12 22 28 35 32 18 10
188 192 194 189 194 204 223 170 178 180 197 198 193 190 211 221 204 176 157 151 305 348 350 333 337 340 20 26 34 33 20 7
174 199 211 202 209 226 176 170 179 200 199 188 201 192 195 219 227 171 162 190 196 272 326 314 323 330 332 348 353 27 43 32
200 210 233 191 217 217 199 169 196 206 199 198 195 197 194 200 188 195 208 178 185 204 203 179 318 291 9 12 351 20 39 55
242 227 251 212 226 211 191 190 199 206 202 204 198 190 193 188 221 221 205 210 213 207 188 231 237 285 8 14 26 28 73 52
256 252 252 245 232 220 196 195 208 216 205 197 199 194 188 183 185 198 257 230 226 227 230 235 229 264 309 336 9 39 73 83
263 272 264 260 255 231 199 202 213 218 218 202 200 198 193 193 198 191 183 206 233 249 231 236 245 253 270 333 50 12 16 88
310 299 298 284 279 259 212 205 209 211 215 207 200 197 196 191 188 192 196 205 195 228 237 241 235 238 260 147 129 168 226 250